Location: ScottNC Observatory
(36.0892°N, 80.4832°W)
Time: 19:57:32
(UTC-04:00)

MOZHAYETS 4 - Visible Passes

Search period start: 23 April 2019 00:00
Search period end: 03 May 2019 00:00
Orbit: 663 x 679 km, 98.0° (Epoch: 23 April)

Date Brightness Start Highest point End Pass type
(mag) Time Alt. Az. Time Alt. Az. Time Alt. Az.
23 Apr 9.8 03:11:50 25° NNE 03:11:50 25° NNE 03:13:55 10° N visible
24 Apr 9.5 03:45:14 25° NNW 03:45:14 25° NNW 03:47:10 10° NNW visible
25 Apr 10.2 02:40:23 19° NE 02:40:23 19° NE 02:42:23 10° NNE visible
25 Apr 9.7 04:18:36 17° NW 04:18:36 17° NW 04:19:52 10° NW visible
26 Apr 9.5 03:13:46 29° NNE 03:13:46 29° NNE 03:16:12 10° N visible
27 Apr 10.7 02:08:55 10° NE 02:08:55 10° NE 02:09:18 10° NE visible
27 Apr 9.2 03:47:09 29° NNW 03:47:09 29° NNW 03:49:25 10° NNW visible
28 Apr 10.0 02:42:18 21° NE 02:42:18 21° NE 02:44:42 10° NNE visible
28 Apr 9.6 04:20:32 18° NW 04:20:32 18° NW 04:22:04 10° NW visible
29 Apr 9.3 03:15:41 34° NNE 03:15:41 34° NNE 03:18:29 10° N visible
30 Apr 10.6 02:10:51 11° ENE 02:10:51 11° ENE 02:11:57 10° NE visible
30 Apr 9.0 03:49:04 32° NNW 03:49:04 32° NNW 03:51:40 10° NNW visible
01 May 9.9 02:44:14 23° NE 02:44:14 23° NE 02:47:02 10° NNE visible
01 May 9.5 04:22:28 19° NW 04:22:28 19° NW 04:24:15 10° NW visible
02 May 9.0 03:17:38 39° NNE 03:17:38 39° NNE 03:20:45 10° N visible
